TimePST,TemperatureF,Dew PointF,Humidity,Sea Level PressureIn,VisibilityMPH,Wind Direction,Wind SpeedMPH,Gust SpeedMPH,PrecipitationIn,Events,Conditions,WindDirDegrees,DateUTC
12:53 AM,39.9,37.9,93,29.88,10.0,Calm,Calm,-,0.00,Rain,Light Rain,0,2013-01-07 08:53:00
1:53 AM,39.9,39.0,97,29.86,10.0,Calm,Calm,-,0.00,Rain,Light Rain,0,2013-01-07 09:53:00
2:53 AM,39.9,37.9,93,29.86,10.0,Calm,Calm,-,0.00,Rain,Light Rain,0,2013-01-07 10:53:00
3:53 AM,39.9,37.9,93,29.83,10.0,SW,4.6,-,0.00,Rain,Light Rain,220,2013-01-07 11:53:00
4:53 AM,39.9,37.9,93,29.79,10.0,Calm,Calm,-,0.00,Rain,Light Rain,0,2013-01-07 12:53:00
5:53 AM,39.9,39.0,97,29.78,10.0,Calm,Calm,-,0.00,Rain,Light Rain,0,2013-01-07 13:53:00
6:53 AM,39.9,39.0,97,29.77,10.0,SSE,4.6,-,0.00,,Overcast,150,2013-01-07 14:53:00
7:53 AM,41.0,39.0,93,29.79,10.0,Calm,Calm,-,N/A,,Overcast,0,2013-01-07 15:53:00
8:53 AM,41.0,39.0,93,29.81,10.0,SSE,4.6,-,N/A,,Overcast,150,2013-01-07 16:53:00
9:53 AM,45.0,42.1,90,29.83,10.0,Calm,Calm,-,N/A,,Overcast,0,2013-01-07 17:53:00
10:53 AM,50.0,44.6,82,29.84,10.0,Calm,Calm,-,N/A,,Overcast,0,2013-01-07 18:53:00
11:53 AM,50.0,44.1,80,29.86,10.0,East,4.6,-,N/A,,Overcast,100,2013-01-07 19:53:00
12:53 PM,50.0,44.1,80,29.91,10.0,Variable,3.5,-,N/A,,Overcast,0,2013-01-07 20:53:00
1:53 PM,53.1,43.0,69,29.93,10.0,WNW,10.4,-,N/A,,Overcast,300,2013-01-07 21:53:00
2:53 PM,51.8,42.8,71,29.96,10.0,WNW,16.1,25.3,N/A,,Mostly Cloudy,300,2013-01-07 22:53:00
3:53 PM,50.0,39.0,66,30.01,10.0,West,15.0,23.0,N/A,,Clear,280,2013-01-07 23:53:00
4:53 PM,48.9,37.0,64,30.03,10.0,WNW,13.8,-,N/A,,Clear,290,2013-01-08 00:53:00
5:53 PM,48.0,35.1,61,30.05,10.0,WNW,11.5,-,N/A,,Partly Cloudy,290,2013-01-08 01:53:00
6:53 PM,46.0,35.1,66,30.07,10.0,NW,9.2,-,N/A,,Clear,310,2013-01-08 02:53:00
7:53 PM,46.0,35.1,66,30.07,10.0,WNW,10.4,-,N/A,,Clear,300,2013-01-08 03:53:00
8:53 PM,45.0,34.0,65,30.09,10.0,West,10.4,-,N/A,,Clear,270,2013-01-08 04:53:00
9:53 PM,44.1,34.0,68,30.11,10.0,West,11.5,-,N/A,,Clear,270,2013-01-08 05:53:00
10:53 PM,44.1,34.0,68,30.13,10.0,WSW,8.1,-,N/A,,Partly Cloudy,240,2013-01-08 06:53:00
11:53 PM,43.0,34.0,71,30.13,10.0,West,6.9,-,N/A,,Clear,280,2013-01-08 07:53:00